DateTimeUTC,F1_A11,F1_S11,BsB_S11,BsG_S11,BsR_S11,BbsB_S11,BbsG_S11,BbsR_S11,BaB_A11,BaG_A11,BaR_A11,Tu_S11,T_S11,Uu_S11,U_S11,P_S11,T1_A11
2021-08-06T14:00:00Z,00000200,20000000,,,,,,,0000.13,-000.01,0000.18,19.4,25.2,03.0,02.1,0667.0,31.0
2021-08-06T14:01:00Z,00000200,20000000,,,,,,,-000.02,-000.33,-000.31,19.4,25.3,03.0,02.1,0667.0,31.0
2021-08-06T14:02:00Z,00000200,20000000,,,,,,,0000.09,-000.28,0000.03,19.4,25.3,03.0,02.1,0667.0,31.0
2021-08-06T14:03:00Z,00000200,60000000,,,,,,,0001.31,0001.90,0001.44,19.4,25.3,03.0,02.1,0667.0,31.0
2021-08-06T14:04:00Z,00000200,40000000,0006.99,0004.65,0002.63,0000.46,0000.80,0000.48,0001.92,0001.52,0001.13,19.5,25.2,03.3,02.3,0668.0,31.0
2021-08-06T14:05:00Z,00000200,00000000,0006.38,0004.84,0002.81,0000.99,0000.75,0000.44,0001.59,0001.52,0001.11,19.5,25.2,03.3,02.3,0668.0,31.0
2021-08-06T14:06:00Z,00000200,00000000,0006.65,0004.90,0003.05,0000.62,0000.84,0000.75,0001.66,0001.35,0001.21,19.5,25.1,03.4,02.4,0668.0,31.0
2021-08-06T14:07:00Z,00000200,00000000,0006.14,0004.73,0002.48,0000.49,0000.87,0000.43,0001.82,0001.95,0001.28,19.5,25.2,03.5,02.5,0668.0,31.0
2021-08-06T14:08:00Z,00000200,00000000,0006.67,0004.78,0002.66,0000.53,0000.71,0000.49,0000.58,0000.51,0000.86,19.5,25.2,03.5,02.5,0668.0,31.0
2021-08-06T14:09:00Z,00000200,00000000,0006.91,0004.72,0002.39,0000.93,0000.87,0000.70,0002.14,0001.35,0000.87,19.6,25.2,03.2,02.2,0668.0,31.0
2021-08-06T14:10:00Z,00000200,00000000,0007.57,0004.59,0002.74,0000.24,0000.62,0000.85,0001.56,0001.71,0001.45,19.5,25.2,03.4,02.4,0668.0,31.0
2021-08-06T14:11:00Z,00000200,00000000,0007.19,0004.67,0002.49,0001.12,0000.82,0000.45,0001.58,0001.50,0000.98,19.6,25.2,03.4,02.4,0668.0,31.0
2021-08-06T14:12:00Z,00000200,00000000,0006.77,0004.71,0002.80,0001.07,0000.86,0000.25,0001.49,0001.61,0000.89,19.6,25.2,03.3,02.4,0668.0,31.0
2021-08-06T14:13:00Z,00000200,00000000,0007.18,0004.77,0002.74,0001.47,0000.71,0000.30,0001.49,0001.29,0000.99,19.6,25.2,03.5,02.4,0668.0,31.0
2021-08-06T14:14:00Z,00000200,00000000,0005.75,0005.08,0002.52,0000.91,0000.64,0000.25,0002.13,0001.73,0001.77,19.6,25.2,03.6,02.5,0668.0,31.0
2021-08-06T14:15:00Z,00000200,00000000,0006.97,0004.32,0002.71,0000.11,0000.67,0000.43,0001.14,0001.32,0001.06,19.6,25.2,03.6,02.6,0668.0,31.0
2021-08-06T14:16:00Z,00000200,00000000,0006.11,0004.53,0003.09,0000.61,0000.65,0000.60,0001.15,0001.15,0000.48,19.6,25.2,03.5,02.5,0668.0,31.0
2021-08-06T14:17:00Z,00000200,00000000,0007.14,0004.89,0002.71,0000.53,0000.59,0000.93,0001.72,0001.28,0001.30,19.6,25.2,03.6,02.5,0668.0,31.0
2021-08-06T14:18:00Z,00000200,00000000,0007.04,0004.84,0002.97,0000.94,0000.79,0000.59,0001.59,0001.14,0000.87,19.6,25.3,03.6,02.6,0668.0,31.0
2021-08-06T14:19:00Z,00000200,00000000,0006.06,0004.47,0002.97,0000.80,0000.85,0000.57,0001.72,0001.79,0001.49,19.6,25.3,03.7,02.6,0668.0,31.0
2021-08-06T14:20:00Z,00000200,00000000,0006.13,0004.40,0002.51,0001.16,0000.63,0000.34,0001.32,0001.36,0001.08,19.6,25.3,03.6,02.6,0667.9,31.0
2021-08-06T14:21:00Z,00000200,00000000,0006.02,0004.46,0003.13,0000.98,0000.54,0000.61,0000.79,0001.17,0000.38,19.6,25.3,03.5,02.5,0667.9,31.0
2021-08-06T14:22:00Z,00000200,00000000,0006.87,0004.56,0002.76,0000.51,0000.75,0000.73,0001.89,0001.04,0001.41,19.6,25.3,03.6,02.6,0667.9,31.0
2021-08-06T14:23:00Z,00000200,00000000,0006.78,0004.72,0002.67,0000.12,0000.83,0000.54,0001.42,0001.61,0000.84,19.6,25.3,03.6,02.6,0667.9,31.0
2021-08-06T14:24:00Z,00000200,00000000,0006.09,0004.35,0002.69,0001.17,0000.36,0000.85,0000.98,0001.16,0000.72,19.6,25.3,03.6,02.5,0667.9,31.0
2021-08-06T14:25:00Z,00000200,00000000,0007.15,0004.41,0002.80,0001.35,0000.84,0000.61,0001.72,0000.77,0001.03,19.6,25.3,03.5,02.5,0667.9,31.0
2021-08-06T14:26:00Z,00000200,00000000,0005.83,0004.54,0002.41,0000.82,0000.98,0000.34,0001.31,0001.66,0001.18,19.6,25.3,03.5,02.5,0667.9,31.0
2021-08-06T14:27:00Z,00000200,00000000,0006.94,0004.11,0002.79,0000.44,0000.55,0000.72,0001.71,0001.59,0001.11,19.6,25.3,03.6,02.5,0667.9,31.0
2021-08-06T14:28:00Z,00000200,00000000,0005.40,0004.45,0002.58,0000.81,0000.59,0000.43,0001.51,0000.91,0000.76,19.6,25.3,03.6,02.6,0667.9,31.0
2021-08-06T14:29:00Z,00000200,00000000,0006.58,0004.17,0002.51,0001.06,0000.84,0000.42,0001.35,0001.55,0001.13,19.6,25.3,03.6,02.6,0667.9,31.0
2021-08-06T14:30:00Z,00000200,00000000,0007.06,0004.24,0002.63,0001.42,0000.82,0000.21,0001.32,0001.28,0000.93,19.6,25.3,03.7,02.6,0667.9,31.0
2021-08-06T14:31:00Z,00000200,00000000,0006.28,0004.38,0002.47,0000.76,0000.68,0000.66,0001.30,0000.94,0000.52,19.7,25.3,03.7,02.6,0667.9,31.0
2021-08-06T14:32:00Z,00000200,00000000,0005.89,0004.26,0002.33,0000.46,0000.55,0000.45,0001.36,0001.43,0001.59,19.7,25.3,03.6,02.5,0667.9,31.0
2021-08-06T14:33:00Z,00000200,00000000,0006.02,0004.25,0002.11,0000.29,0000.70,0000.61,0001.21,0001.29,0000.81,19.6,25.3,03.6,02.5,0667.9,31.0
2021-08-06T14:34:00Z,00000200,00000000,0006.44,0004.07,0002.36,0000.61,0000.59,0000.30,0001.43,0001.26,0000.61,19.6,25.4,03.7,02.6,0667.9,31.0
2021-08-06T14:35:00Z,00000200,00000000,0005.54,0004.56,0002.59,0000.96,0000.73,0000.62,0001.50,0001.23,0001.40,19.7,25.4,03.6,02.6,0667.9,31.0
2021-08-06T14:36:00Z,00000200,00000000,0005.65,0004.15,0002.50,0001.19,0000.50,0000.75,0000.84,0000.78,0000.47,19.6,25.4,03.6,02.5,0667.9,31.0
2021-08-06T14:37:00Z,00000200,00000000,0006.31,0004.25,0002.64,0000.96,0000.42,0000.77,0002.02,0001.84,0001.62,19.6,25.4,03.5,02.5,0667.9,31.0
2021-08-06T14:38:00Z,00000200,00000000,0005.93,0004.24,0002.60,0000.53,0000.94,0000.37,0000.92,0000.46,0000.50,19.6,25.4,03.6,02.5,0667.9,31.0
2021-08-06T14:39:00Z,00000200,00000000,0005.68,0004.44,0002.42,0001.06,0000.45,0000.43,0001.30,0001.29,0000.76,19.6,25.4,03.6,02.5,0667.9,31.0
2021-08-06T14:40:00Z,00000200,00000000,0005.99,0004.44,0002.32,0000.84,0000.58,0000.66,0001.67,0001.99,0001.13,19.6,25.4,03.6,02.5,0667.9,31.0
2021-08-06T14:41:00Z,00000200,00000000,0005.85,0003.98,0002.23,0000.59,0000.76,0000.51,0001.31,0000.93,0001.03,19.6,25.4,03.8,02.7,0667.9,31.0
2021-08-06T14:42:00Z,00000200,00000000,0005.62,0004.02,0002.53,0000.51,0000.68,0000.40,0001.01,0001.41,0000.60,19.6,25.4,03.7,02.6,0667.9,31.0
2021-08-06T14:43:00Z,00000200,00000000,0005.52,0004.02,0002.61,0000.63,0000.78,0000.68,0001.97,0001.18,0001.28,19.6,25.4,03.6,02.5,0667.9,31.0
2021-08-06T14:44:00Z,00000200,00000000,0005.49,0004.38,0002.35,0000.54,0000.62,0000.14,0000.95,0001.12,0000.97,19.6,25.4,03.7,02.6,0667.9,31.0
2021-08-06T14:45:00Z,00000200,00000000,0005.46,0004.24,0002.03,0000.28,0000.50,0000.47,0001.25,0000.97,0000.82,19.6,25.4,03.6,02.6,0667.9,31.0
2021-08-06T14:46:00Z,00000200,00000000,0005.63,0004.07,0002.65,0000.43,0000.56,0000.81,0001.04,0001.34,0000.87,19.6,25.4,03.6,02.5,0667.9,31.0
2021-08-06T14:47:00Z,00000200,00000000,0006.09,0003.95,0002.29,0000.63,0000.83,-000.10,0001.55,0001.07,0001.11,19.6,25.4,03.6,02.5,0667.9,31.0
2021-08-06T14:48:00Z,00000200,00000000,0006.12,0003.81,0002.37,0000.39,0000.53,0000.43,0001.16,0001.20,0001.05,19.6,25.4,03.5,02.5,0667.9,31.0
2021-08-06T14:49:00Z,00000200,00000000,0005.51,0004.06,0002.47,0000.34,0000.75,0000.79,0001.26,0001.08,0000.40,19.6,25.4,03.5,02.5,0667.9,31.0
2021-08-06T14:50:00Z,00000200,00000000,0005.80,0004.02,0002.43,0000.75,0000.62,0000.56,0001.19,0000.94,0000.97,19.6,25.4,03.5,02.5,0667.9,31.0
2021-08-06T14:51:00Z,00000200,00000000,0006.16,0004.18,0002.71,0001.55,0000.68,0000.36,0001.85,0001.84,0001.35,19.6,25.4,03.5,02.4,0667.9,31.0
2021-08-06T14:52:00Z,00000200,00000000,0006.72,0003.94,0002.46,0000.84,0000.85,0000.56,0000.76,0000.92,0000.72,19.6,25.4,03.6,02.5,0667.8,31.0
2021-08-06T14:53:00Z,00000200,00000000,0006.82,0004.01,0002.59,0000.26,0000.67,0000.49,0001.35,0001.53,0000.53,19.6,25.4,03.6,02.5,0667.8,31.0
2021-08-06T14:54:00Z,00000200,00000000,0006.37,0004.11,0002.68,0000.76,0000.63,0000.79,0001.47,0001.08,0001.24,19.6,25.5,03.6,02.5,0667.8,31.0
2021-08-06T14:55:00Z,00000200,00000000,0006.07,0003.92,0002.40,0000.21,0000.60,0000.27,0001.31,0001.06,0000.97,19.6,25.5,03.6,02.5,0667.8,31.0
2021-08-06T14:56:00Z,00000200,00000000,0006.48,0004.07,0002.48,0000.58,0000.77,0000.47,0001.44,0000.98,0001.02,19.6,25.5,03.6,02.5,0667.9,31.0
2021-08-06T14:57:00Z,00000200,40000000,,,,,,,0000.47,0000.41,-000.17,19.6,25.5,04.0,02.8,0667.9,31.0
2021-08-06T14:58:00Z,00000200,60000000,,,,,,,-000.15,0000.22,0000.16,19.5,25.5,03.2,02.2,0666.9,31.0
2021-08-06T14:59:00Z,00000200,20000000,,,,,,,0000.02,-000.24,-000.09,19.5,25.6,03.2,02.2,0666.8,31.0
